STARLINK-31736 (59547 NORAD) Tracking and Keplerian Element Data

This shows tracking and keplerian element data for the satellite.

Feedback or suggestion? Click here.




ElementValue
Catalog59547
NameSTARLINK-31736
Epoch Orbit781
Epoch Day159.94296415
Epoch Year2024
RAAN27.5975
Inclination43.0009
Eccentricity0.0004166
Argument of Perigee292.6279
Mean Anonmoly67.4136
Mean Motion15.40708089
Decay Rate5.59E-05
L11 59547U 24074P 24159.94296415 .00005590 00000+0 14094-3 0 9997
L22 59547 43.0009 27.5975 0004166 292.6279 67.4136 15.40708089 7812



Live tracking and technical data element details for STARLINK-31736 (NORAD 59547). STARLINK-31736 can be tracked NOW for your location showing map with azimuth and elevation plus other details from your city location.







IsCatalogInMostPopularTable: catalog: 59547, numindb: 12
Update: records affected: 1



GetName: 59547 STARLINK-31736

Hit Count: updated at: Fri, 14 Jun 2024 17:42:46 GMT